False Pass, AK

7:38 PM AKDT on August 31, 2016 (GMT -0800)
False Pass

Weather History for PAKF - April, 2013

Change the Weather History Date:

Sunday, April 28, 2013

  Actual Average (PACD) Record (PACD)
Temperature  
Mean Temperature 34 °F 37 °F  
Max Temperature 30 °F 42 °F 52 °F (1993)
Min Temperature 30 °F 32 °F 15 °F (1976)
Degree Days  
Heating Degree Days 32 28  
Month to date heating degree days 874  
Since 1 July heating degree days 8177  
Cooling Degree Days 0    
Month to date cooling degree days  
Year to date cooling degree days  
Moisture  
Dew Point 25 °F    
Average Humidity 74    
Maximum Humidity 85    
Minimum Humidity 66    
Precipitation  
Precipitation 0.00 in 0.08 in 1.16 in (1977)
Month to date precipitation 2.27  
Year to date precipitation 11.11  
Snow  
Snow 0.00 in 0.20 in 2.50 in (1988)
Month to date snowfall 6.4  
Since 1 July snowfall 71.6  
Snow Depth -    
Sea Level Pressure  
Sea Level Pressure 30.69 in    
Wind  
Wind Speed 19 mph (WNW)    
Max Wind Speed 25 mph    
Max Gust Speed 34 mph    
Visibility 10 miles    
Events      
T = Trace of Precipitation, MM = Missing Value Source: NWS Daily Summary

Daily Weather History Graph

Daily Weather History Graph

Search for Another Location

Airport or City:

Trip Planner

Search our weather history database for the weather conditions in past years. The results will help you decide how hot, cold, wet, or windy it might be!

Date:

Astronomy

Apr. 28, 2013 Rise Set
Actual Time 6:19 AM HDT 9:23 PM HDT
Civil Twilight 5:37 AM HDT 10:06 PM HDT
Nautical Twilight 4:41 AM HDT 11:02 PM HDT
Astronomical Twilight 3:25 AM HDT 12:20 AM HDT
Moon 12:23 AM HDT (4/28) 8:29 AM HDT (4/28)
Length of Visible Light 16h 28m
Length of Day
15h 04m
Waning Gibbous, 87% of the Moon is Illuminated
Apr 28
Waning Gibbous
May 2
Last Quarter
May 9
New
May 17
First Quarter
May 24
Full

Hourly Weather History & Observations

Time (HDT) Temp. Windchill Dew Point Humidity Pressure Visibility Wind Dir Wind Speed Gust Speed Precip Events Conditions
12:01 AM 32.0 °F 18.9 °F 21.9 °F 66% 30.71 in 10.0 mi West 24.2 mph 34.5 mph N/A   Clear
1:01 AM 32.0 °F 20.5 °F 24.1 °F 73% 30.73 in 10.0 mi WNW 18.4 mph 32.2 mph N/A   Partly Cloudy
2:01 AM 32.0 °F 19.2 °F 25.0 °F 75% 30.74 in 10.0 mi West 23.0 mph 32.2 mph N/A   Partly Cloudy
3:01 AM 32.0 °F 20.8 °F 23.0 °F 69% 30.73 in 10.0 mi WNW 17.3 mph 27.6 mph N/A   Clear
4:01 AM 32.0 °F 20.1 °F 23.0 °F 69% 30.73 in 10.0 mi WNW 19.6 mph 28.8 mph N/A   Clear
5:01 AM 30.9 °F 19.4 °F 24.1 °F 76% 30.72 in 10.0 mi WNW 17.3 mph 25.3 mph N/A   Clear
6:01 AM 30.0 °F 22.4 °F 25.0 °F 82% 30.74 in 10.0 mi WNW 8.1 mph 24.2 mph N/A   Clear
7:01 AM 30.0 °F 17.9 °F 24.1 °F 79% 30.72 in 10.0 mi WNW 18.4 mph 28.8 mph N/A   Clear
8:01 AM 30.0 °F 17.9 °F 25.0 °F 82% 30.72 in 10.0 mi WNW 18.4 mph 26.5 mph N/A   Clear
9:01 AM 32.0 °F 19.5 °F 24.1 °F 73% 30.71 in 10.0 mi West 21.9 mph 29.9 mph N/A   Clear
10:01 AM 32.0 °F 18.6 °F 24.1 °F 73% 30.71 in 10.0 mi West 25.3 mph 31.1 mph N/A   Clear
11:01 AM 34.0 °F 22.1 °F 25.0 °F 70% 30.72 in 10.0 mi WNW 21.9 mph 28.8 mph N/A   Clear
12:01 PM 34.0 °F 22.1 °F 26.1 °F 73% 30.72 in 10.0 mi WNW 21.9 mph 29.9 mph N/A   Clear
1:01 PM 36.0 °F 25.6 °F 26.1 °F 67% 30.72 in 10.0 mi WNW 18.4 mph 28.8 mph N/A   Clear
2:01 PM 36.0 °F 26.3 °F 26.1 °F 67% 30.72 in 10.0 mi NW 16.1 mph 23.0 mph N/A   Clear
3:01 PM 36.0 °F 27.5 °F 26.1 °F 67% 30.71 in 10.0 mi WNW 12.7 mph 20.7 mph N/A   Clear
4:01 PM 37.0 °F 27.7 °F 27.0 °F 67% 30.70 in 10.0 mi NNW 16.1 mph 20.7 mph N/A   Partly Cloudy
5:01 PM 36.0 °F 26.7 °F 27.0 °F 70% 30.69 in 10.0 mi NNW 15.0 mph 26.5 mph N/A   Mostly Cloudy
6:01 PM 34.0 °F 23.0 °F 26.1 °F 73% 30.69 in 10.0 mi NW 18.4 mph 24.2 mph N/A   Overcast
6:37 PM 33.8 °F 22.5 °F 24.8 °F 70% 30.39 in 10.0 mi NW 19.6 mph 26.5 mph N/A   Scattered Clouds
7:01 PM 33.1 °F 23.0 °F 26.1 °F 75% 30.68 in 10.0 mi NW 15.0 mph 23.0 mph N/A   Scattered Clouds
7:11 PM 33.8 °F 22.8 °F 26.6 °F 75% 30.39 in 10.0 mi NW 18.4 mph 27.6 mph N/A   Mostly Cloudy
8:01 PM 32.0 °F 20.1 °F 26.1 °F 79% 30.67 in 10.0 mi NW 19.6 mph 27.6 mph N/A   Mostly Cloudy
9:01 PM 30.9 °F 20.2 °F 27.0 °F 85% 30.69 in 10.0 mi NW 15.0 mph 24.2 mph N/A   Overcast
10:01 PM 30.9 °F 20.7 °F 26.1 °F 82% 30.69 in 10.0 mi NW 13.8 mph 24.2 mph N/A   Overcast
11:01 PM 30.9 °F 20.7 °F 26.1 °F 82% 30.69 in 10.0 mi WNW 13.8 mph 21.9 mph N/A   Overcast